Location: Gand�
(15.0971°N, 12.6564°W)
Time: 15:15:50
(UTC+00:00)

Meteor 2-14 Rocket - Pass Details

Date: 07 August 2020
Orbit: 937 x 956 km, 82.5° (Epoch: 20 September)

Event Time Altitude Azimuth Distance (km) Brightness Sun altitude
Rises 04:48:59 0° 347° (NNW) 3,589 7.6 -24.6°
Reaches altitude 10° 04:51:31 10° 343° (NNW) 2,645 6.9 -24.0°
Maximum altitude 04:57:21 53° 268° (W) 1,139 4.5 -22.8°
Enters shadow 04:58:51 43° 224° (SW) 1,294 4.7 -22.4°
